Find Starlink 35260

NORAD ID: 65751 Int'l Des: 2025-216 Owner: SPXS Country: US Constellation: starlink operational
LEOCIRCULAR

当前视图

正在加载3D地球...

About Starlink 35260

Starlink 35260 (NORAD 65751) is a starlink constellation satellite (v2 mini) launched Sep 25, 2025 by SPXS of US. It operates in LEO, CIRCULAR orbit with a mass of 575.00 kg.

即将过境

Passes for default location (London). Set your location on the main map for personalized predictions.

高度历史

Loading altitude history...

两行轨道根数

1 65751U 25216T 26238.29429665 .00013083 00000-0 39773-3 0 9991
2 65751 53.1564 263.4764 0001271 103.9485 256.1659 15.34394832 52534
Epoch: Aug 26, 2026 • Age: 7 hours

当前状态

高度 481.7 km
远地点 / 近地点 N/A
速度 7.62 km/s
星下点 -52.28°S, 5.26°W
发射日期 Sep 25, 2025
运行时间 0.9 years
类型 internet

技术详情

分类 Payload
质量 575.00 kg
干质量 530.00 kg
总质量 575.00 kg
长度 0.30 m
直径 4.10 m
跨度 29.00 m
形状 Box + pan
制造商 SPXS
平台类型 Starlink V2MO
阶段状态 In Orbit
所有者/国家 SPXS/US

Most Searched